www.pogodaiklimat.ru

Погода и климат >> Архив погоды >> Россия >> Ямало-Ненецкий АО >> Сеяха


ПОГОДА в Сеяхе

  • Прогноз погоды в Сеяхе
  • Монитор погоды в Сеяхе

АРХИВ ПОГОДЫ в Сеяхе

Время (UTC), дата Ветер
(напр.,м/с)
 
Видим.   Явления Облачность Т
(С)
Тd
(С)
f
(%)
Тe
(С)
Тes
(С)
Комфортность P
(гПа)
Po
(гПа)
Тmin
(С)
Tmax
(С)
R
(мм)
R24
(мм)
S
(см)
18 16.08 ЮВ 3 н/о н/о +13.9 +13.4 97 +13 +13 1006.9 1004.7
21 16.08 ЮВ 4 н/о н/о +13.7 +13.1 96 +12 +12 1005.0 1002.9
00 17.08 Ю 4 н/о н/о +14.3 +13.8 97 +13 +13 1003.3 1001.1
03 17.08 З 6 20 км 9/6 750 м
[Cu Sc Cs]
+13.7 +12.4 92 +11 +12 1003.3 1001.2 +13.4
06 17.08 ЮЗ 3 20 км ясно +16.6 +10.7 68 +16 +21 1004.4 1002.3
09 17.08 Ю 4 20 км 10/10 960 м
[Cu Sc]
+14.1 +11.6 85 +13 +13 1004.6 1002.4
12 17.08 ЮЗ 4 20 км {ливн. осадки} 9/9 540 м
[Cu Sc]
+15.2 +12.8 86 +14 +14 1005.2 1003.1
15 17.08 ЮЗ 3 20 км 9/9 300 м
[Sc]
+13.9 +12.2 89 +13 +13 1006.2 1004.1 +16.8
18 17.08 З 5 н/о н/о +12.5 +11.7 95 +10 +10 1007.5 1005.4
21 17.08 З 6 н/о н/о +11.8 +10.9 94 +9 +9 1009.4 1007.2
00 18.08 СЗ 5 20 км 10/10 210 м
[St]
+10.1 +9.3 95 +7 +7 1011.8 1009.6
03 18.08 С 7-11
{11}
20 км 10/10 270 м
[St]
+10.1 +8.5 90 +6 +6 1014.5 1012.3 +9.7
06 18.08 СЗ 8-11
{11}
20 км 10/10 300 м
[Sc]
+10.1 +7.4 83 +6 +6 1016.5 1014.3
09 18.08 С 5
{12}
20 км 10/10 800 м
[Sc]
+9.7 +5.5 75 +7 +7 1018.3 1016.1
12 18.08 СЗ 7
{11}
20 км 10/10 700 м
[Sc]
+10.3 +6.1 75 +7 +7 1020.7 1018.5
15 18.08 С 6 20 км 10/10 630 м
[Sc]
+9.5 +6.1 79 +6 +6 1022.2 1019.9 +10.6
18 18.08 СЗ 5 н/о н/о +7.5 +5.3 86 +4 +4 1023.6 1021.3
21 18.08 СЗ 3 н/о н/о +7.9 +6.0 88 +5 +5 1024.5 1022.2
00 19.08 З 3 20 км 10/10 210 м
[St]
+6.8 +6.0 95 +4 +4 1025.7 1023.4
03 19.08 СЗ 2 20 км 10/10 120 м
[St]
+6.5 +5.6 94 +4 +4 1026.4 1024.1 +5.6
06 19.08 ЮЗ 3 20 км 10/10 210 м
[St]
+10.2 +8.6 90 +8 +8 1026.5 1024.3
09 19.08 З 3 20 км 10/10 330 м
[St]
+13.7 +10.6 82 +13 +13 1026.4 1024.2
12 19.08 З 5 20 км 9/9 630 м
[Cu Sc]
+15.2 +11.6 79 +14 +14 1026.6 1024.4
15 19.08 Ю 1 20 км 9/9 720 м
[Cu Sc]
+13.8 +11.4 85 +14 +14 1026.8 1024.6 +16.0
18 19.08 ЮЗ 2 н/о н/о +12.4 +11.2 92 +11 +11 1027.3 1025.1
21 19.08 Ю 2 н/о н/о +12.1 +11.1 94 +11 +11 1027.6 1025.4
00 20.08 ЮЗ 1 20 км 10/10 570 м
[Sc]
+12.2 +11.4 95 +12 +12 1028.1 1025.9
03 20.08 З 2 20 км 10/10 720 м
[Sc]
+13.2 +11.5 89 +12 +12 1028.4 1026.2 +12.0
06 20.08 ЮВ 3 20 км 10/10 270 м
[Cu Sc]
+14.1 +11.9 87 +13 +13 1028.6 1026.4
09 20.08 ЮВ 3 20 км 10/10 600 м
[Sc]
+14.8 +10.7 76 +14 +14 1028.4 1026.2
12 20.08 ЮВ 1 20 км 4/4 600 м
[Cu Sc]
+14.7 +9.8 72 +15 +17 1028.5 1026.3
15 20.08 В 3 20 км 3/0
[Cs]
+12.6 +9.4 81 +11 +11 1028.2 1026.0 +15.7
18 20.08 ЮВ 5 н/о н/о +10.7 +9.6 93 +8 +8 1027.9 1025.7
21 20.08 ЮВ 5 н/о н/о +9.0 +8.5 97 +5 +5 1027.8 1025.5
00 21.08 Ю 1 500 м туман ?/? +9.2 +8.8 97 +8 +8 1027.3 1025.1
03 21.08 В 2 500 м туман ?/? +9.5 +9.1 97 +8 +8 1026.8 1024.6 +8.8
06 21.08 ЮВ 3 500 м туман ?/? +9.4 +9.0 97 +7 +7 1025.6 1023.4
09 21.08 ЮВ 2 20 км {туман} 9/8 360 м
[Cu Sc Ci fib]
+11.8 +9.7 87 +11 +12 1024.2 1022.0
12 21.08 ЮВ 3 20 км {туман} 8/3 300 м
[Cu Sc Ci fib]
+11.9 +9.9 88 +10 +11 1022.6 1020.4
15 21.08 ЮВ 4 20 км 8/0
[Ac trans Ci fib]
+10.9 +9.4 90 +8 +8 1021.3 1019.1 +12.7
18 21.08 ЮВ 4 н/о н/о +10.6 +9.5 93 +8 +8 1020.0 1017.8
21 21.08 Ю 4 н/о н/о +9.6 +7.1 84 +7 +7 1018.3 1016.0
00 22.08 Ю 4 20 км 4/0
[Cs]
+8.9 +7.6 92 +6 +6 1017.2 1014.9
03 22.08 Ю 3 20 км 4/0
[Cs]
+13.6 +9.9 78 +12 +14 1015.6 1013.4 +8.6
06 22.08 ЮВ 6 20 км 3/0 300 м
[Cs]
+15.1 +9.9 71 +14 +16 1014.0 1011.8
09 22.08 Ю 7 20 км 6/0
[Cs]
+15.8 +9.0 64 +14 +15 1012.4 1010.3
12 22.08 Ю 6
{11}
20 км 8/0
[Cs]
+15.1 +11.4 79 +13 +14 1010.8 1008.7
15 22.08 Ю 5 20 км 8/0
[Cs]
+13.9 +12.4 91 +12 +12 1009.4 1007.2 +15.8
18 22.08 ЮЗ 5 н/о н/о +11.5 +10.4 93 +9 +9 1008.5 1006.3
21 22.08 З 7
{11}
н/о н/о +10.1 +9.6 97 +6 +6 1008.6 1006.4
00 23.08 З 6 20 км 10/10 270 м
[St]
+9.6 +8.8 95 +6 +6 1008.2 1006.0
03 23.08 З 7
{11}
20 км 10/10 90 м
[St]
+9.2 +8.6 96 +5 +5 1008.4 1006.2 +9.2
06 23.08 н/о 1008.5 1006.3
09 23.08 З 5 20 км 9/3 300 м
[Cu Sc Cs]
+12.4 +7.7 73 +10 +12 1008.6 1006.4
12 23.08 З 5 20 км в посл. час морось 8/0
[Cs]
+13.5 +6.9 64 +12 +12 1008.4 1006.2
15 23.08 СЗ 4 20 км 8/0
[Cs]
+8.9 +6.0 82 +6 +6 1008.6 1006.4 +13.5

 

Местоположение метеостанции Сеяха (Ямало-Ненецкий АО, Россия): широта 70.17 долгота 72.52 высота над уровнем моря 18 м.

В архиве по умолчанию представлена погода в Сеяхе за последнюю неделю. Архивные данные за месяц целиком и за предыдущие месяцы, начиная с января 2011 года, Вы можете получить, выбрав интересующий диапазон дат из раскрывающегося списка и нажав кнопку "Ввод!".


*Определитесь, кто Вы:
робот инопланетянин человек

Внимание! Время в таблицах - всемирное. Для получения местного времени необходимо прибавить поправку, которая равна 5 ч.

Смотрите также архив погоды в соседних городах и на ближайших метеорологических станциях:

Погода в Тамбее (Ямало-Ненецкий АО, Россия) (148 км)
Погода в Антипаюте (Ямало-Ненецкий АО, Россия) (207 км)
Погода в Марресале (Ямало-Ненецкий АО, Россия) (224 км)
Погода в Гыде (Ямало-Ненецкий АО, Россия) (234 км)
Погода в Новом Порте (Ямало-Ненецкий АО, Россия) (277 км)
Погода в Усть-Каре (Ненецкий АО, Россия) (310 км)
Погода в Имени Попова (Ямало-Ненецкий АО, Россия) (362 км)
Погода в Тазовском (Ямало-Ненецкий АО, Россия) (390 км)
Погода в Ныде (Ямало-Ненецкий АО, Россия) (394 км)
Погода в Карауле (Красноярский край, Россия) (402 км)

Пояснения к столбцам:

Ветер - указаны скорость ветра в м/с - средняя за 10 мин, порывы в срок и между сроками (в фигурных скобках) и направление, откуда дует ветер: С - северный, СВ - северо-восточный, В - восточный, ЮВ - юго-восточный, Ю - южный, ЮЗ - юго-западный, З - западный, СЗ - северо-западный.
Видимость - горизонтальная дальность видимости в метрах или километрах. При видимости от 1 до 10 км при отсутствии осадков обычно наблюдается дымка, при ухудшении видимости до 1 км и менее - туман. В сухую погоду видимость может ухудшаться дымом, пылью или мглою.
Явления - указаны атмосферные явления, наблюдавшиеся в срок или в последний час перед сроком; фигурными скобками обозначены явления, наблюдавшиеся между сроками (за 1-3 часа до срока); квадратными скобками обозначены град или гололедные отложения с указанием их диаметра в мм.
Облачность - указаны через наклонную черту общая и нижняя облачность в баллах и высота нижней границы облаков в метрах; квадратными скобками обозначены формы облаков: Ci - перистые, Cs - перисто-слоистые, Cc - перисто-кучевые, Ac - высококучевые, As - высокослоистые, Sc - слоисто-кучевые, Ns - слоисто-дождевые, Cu - кучевые, Cb - кучево-дождевые. Подробнее классификацию облаков см. в Атласе облаков (PDF).
T - Температура воздуха - температура, измеренная на высоте 2 м над землей.
Td - Температура точки росы - температура, при понижении до которой содержащийся в воздухе водяной пар достигнет насыщения.
f - Относительная влажность воздуха - влажноcть воздуха, измеренная на высоте 2 м над землей.
Te - Эффективная температура - температура, которую ощущает одетый по сезону человек в тени. Характеристика душности погоды. При расчете учитывается влияние влажности воздуха и скорости ветра на теплоощущения человека.
Tes - Эффективная температура на солнце - температура, которую ощущает человек, с поправкой на солнечный нагрев. Характеристика знойности погоды. Зависит от высоты солнца над горизонтом, облачности и скорости ветра. Ночью, в пасмурную погоду, а также при ветре 12 м/с и более поправка равна нулю.
P - Атмосферное давление - приведенное к уровню моря атмосферное давление.
Po - Атмосферное давление - измеренное на уровне метеостанции атмосферное давление.
Tmin - Минимальная температура - минимум температуры воздуха на высоте 2 м над землей.
Tmax - Максимальная температура - максимум температуры воздуха на высоте 2 м над землей.
R - Количество осадков - Количество выпавших осадков за период времени, мм. При наведении курсора мыши на число - период времени, за который выпало указанное количество осадков.
R24 - Количество осадков - Количество выпавших осадков за 24 часа, мм.
S - Снежный покров - Высота снежного покрова, см. При наведении курсора мыши на число - состояние снежного покрова и степень покрытия местности в баллах.